TimePST,TemperatureF,Dew PointF,Humidity,Sea Level PressureIn,VisibilityMPH,Wind Direction,Wind SpeedMPH,Gust SpeedMPH,PrecipitationIn,Events,Conditions,WindDirDegrees,DateUTC
12:53 AM,57.0,37.0,47,30.20,10.0,Calm,Calm,-,N/A,,Clear,0,2013-03-02 08:53:00
1:53 AM,55.9,37.0,49,30.19,10.0,Calm,Calm,-,N/A,,Clear,0,2013-03-02 09:53:00
2:53 AM,55.9,36.0,47,30.17,10.0,WNW,4.6,-,N/A,,Clear,300,2013-03-02 10:53:00
3:53 AM,57.9,34.0,41,30.17,10.0,Calm,Calm,-,N/A,,Clear,0,2013-03-02 11:53:00
4:53 AM,54.0,34.0,47,30.17,10.0,Calm,Calm,-,N/A,,Clear,0,2013-03-02 12:53:00
5:53 AM,55.0,34.0,45,30.18,10.0,NW,3.5,-,N/A,,Clear,320,2013-03-02 13:53:00
6:53 AM,55.9,34.0,44,30.19,10.0,Calm,Calm,-,N/A,,Clear,0,2013-03-02 14:53:00
7:53 AM,61.0,35.1,38,30.20,10.0,Calm,Calm,-,N/A,,Clear,0,2013-03-02 15:53:00
8:53 AM,70.0,36.0,29,30.19,10.0,Calm,Calm,-,N/A,,Clear,0,2013-03-02 16:53:00
9:53 AM,75.0,36.0,24,30.19,10.0,Calm,Calm,-,N/A,,Clear,0,2013-03-02 17:53:00
10:53 AM,80.1,28.9,15,30.19,10.0,SW,5.8,-,N/A,,Clear,230,2013-03-02 18:53:00
11:53 AM,82.0,28.0,14,30.17,10.0,SSW,6.9,-,N/A,,Clear,200,2013-03-02 19:53:00
12:53 PM,82.0,28.0,14,30.14,10.0,South,6.9,-,N/A,,Clear,180,2013-03-02 20:53:00
1:53 PM,79.0,33.1,19,30.11,10.0,South,5.8,-,N/A,,Clear,180,2013-03-02 21:53:00
2:53 PM,82.0,35.1,18,30.09,10.0,NW,6.9,-,N/A,,Clear,320,2013-03-02 22:53:00
3:53 PM,80.1,28.9,15,30.08,10.0,WNW,8.1,-,N/A,,Clear,300,2013-03-02 23:53:00
4:53 PM,78.1,28.9,17,30.07,10.0,WNW,9.2,-,N/A,,Clear,290,2013-03-03 00:53:00
5:53 PM,73.0,28.0,19,30.08,10.0,WNW,10.4,-,N/A,,Clear,300,2013-03-03 01:53:00
6:53 PM,66.9,30.9,26,30.09,10.0,WNW,4.6,-,N/A,,Clear,300,2013-03-03 02:53:00
7:53 PM,64.0,37.0,37,30.10,10.0,NNW,3.5,-,N/A,,Clear,330,2013-03-03 03:53:00
8:53 PM,62.1,43.0,50,30.12,10.0,NNW,3.5,-,N/A,,Clear,330,2013-03-03 04:53:00
9:53 PM,60.1,48.9,67,30.12,10.0,NNW,3.5,-,N/A,,Clear,330,2013-03-03 05:53:00
10:53 PM,59.0,48.0,67,30.11,10.0,SE,3.5,-,N/A,,Clear,130,2013-03-03 06:53:00
11:53 PM,57.0,51.1,81,30.11,10.0,ESE,3.5,-,N/A,,Clear,120,2013-03-03 07:53:00